Lexington Weather

Lexington, Massachusetts, USA

39°F
3/30/2020 8:19am 
  • Lexington Conditions: Mist, Overcast
  • Temperature: 39.4°F / 4.1°C 
  • Dew Point: 38.7°F 
  • Relative Humidity: 97
  • Wind: Wind from N N 2 mph, 10-min avg: 3 mph, gust: 7 mph
  • Barometer: 29.96 in Steady
  • Visibility: 2 miles
  • Rain Today: 0.02 in
  •   

Regional Weather Roundup
for Boston / Norton, MA

        
000
ASUS41 KBOX 291504
RWRBOX

REGIONAL WEATHER ROUNDUP
NATIONAL WEATHER SERVICE BOSTON/NORTON MA
1100 AM EDT SUN MAR 29 2020

NOTE:  "FAIR" INDICATES FEW OR NO CLOUDS BELOW 12,000 FEET WITH NO 
SIGNIFICANT WEATHER AND/OR OBSTRUCTIONS TO VISIBILITY.

MAZALL-291600-
EASTERN MASSACHUSETTS
  
CITY           SKY/WX    TMP DP  RH WIND       PRES   REMARKS
BOSTON         LGT RAIN  42  40  92 E22       30.18F FOG              
BEVERLY        LGT RAIN  44  40  85 E7        30.18S                  
LAWRENCE       LGT RAIN  44  41  89 NE8       30.20F FOG              
BEDFORD        LGT RAIN  45  42  89 E10       30.15F FOG              
BLUE HILL        N/A     43  42  97 E14G21    30.13F                  
NORWOOD        CLOUDY    47  43  86 E8        30.15F FOG              
MARSHFIELD     CLOUDY    45  45 100 SE9       30.16S FOG              
PLYMOUTH       LGT RAIN  43  42  97 SE14G21   30.15F FOG              
TAUNTON        CLOUDY    45  43  93 E14G25    30.14F FOG              
NEW BEDFORD    CLOUDY    43  43 100 E10G22    30.12S                  
$$

MAZALL-291600-
CAPE COD AND THE ISLANDS
  
CITY           SKY/WX    TMP DP  RH WIND       PRES   REMARKS
FALMOUTH       CLOUDY    43  43 100 SE20G25   30.14F FOG              
HYANNIS        CLOUDY    44  40  85 E9G18     30.13F FOG              
CHATHAM        LGT RAIN  44  36  73 E13G22    30.15F                  
PROVINCETOWN   LGT RAIN  44  38  79 SE10      30.17F                  
NANTUCKET      CLOUDY    46  41  82 E22G33    30.12F                  
MARTHAS VNYRD  CLOUDY    46  42  86 E15G22    30.13R                  
$$
 
MAZALL-291600-
CENTRAL AND WESTERN MASSACHUSETTS
  
CITY           SKY/WX    TMP DP  RH WIND       PRES   REMARKS
WORCESTER      FOG       43  42  97 E9        30.11S VSB 1/4          
FITCHBURG      CLOUDY    44  41  89 E9        30.14F FOG              
ORANGE         LGT RAIN  46  43  89 NE5       30.11F                  
SPRINGFIELD    DRIZZLE   46  45  98 CALM      30.12R FOG              
WESTFIELD      LGT RAIN  46  43  89 NE5       30.12R FOG              
NORTH ADAMS    RAIN      45  40  82 E16G29    30.08R                  
PITTSFIELD     RAIN      43  40  89 E7        30.04F FOG              
$$
 
RIZALL-291600-
RHODE ISLAND
  
CITY           SKY/WX    TMP DP  RH WIND       PRES   REMARKS
PROVIDENCE     CLOUDY    45  44  97 E16       30.13F FOG              
NEWPORT        CLOUDY    47  42  83 E14G29    30.09F HAZE             
BLOCK ISLAND   CLOUDY    44  41  89 E16G25    30.07F                  
SMITHFIELD     LGT RAIN  44  44 100 SE13G20   30.12F                  
WESTERLY       CLOUDY    48  42  80 E17G24    30.09F HAZE             
$$
 
CTZALL-291600-
CONNECTICUT
  
CITY           SKY/WX    TMP DP  RH WIND       PRES   REMARKS
BRADLEY INTL   DRIZZLE   47  45  93 VRB6      30.11S FOG              
HARTFORD       LGT RAIN  48  45  89 NE3       30.11R FOG              
BRIDGEPORT     CLOUDY    46  44  93 E21       30.04F FOG              
DANBURY        LGT RAIN  46  44  93 E15G23    30.04F FOG              
GROTON         LGT RAIN  44  44 100 E23G32    30.07F FOG              
NEW HAVEN      CLOUDY    47  45  93 E23G32    30.03F FOG              
CHESTER        FOG       46  45  93 E14G20    30.07R VSB 3/4          
MERIDEN        LGT RAIN  47  45  93 NE5       30.09R FOG              
WILLIMANTIC    CLOUDY    46  44  93 SE12      30.11S FOG              
OXFORD         LGT RAIN  45  44  97 VRB7      30.13R VSB 1            
$$

MEZ002-015-021-024-NHZ003-005-008-011-012-014-VTZ005-008-291600-
NORTHERN NEW ENGLAND
  
CITY           SKY/WX    TMP DP  RH WIND       PRES   REMARKS
PORTLAND ME    CLOUDY    45  37  73 E6        30.25R                  
BANGOR ME      CLOUDY    50  27  40 E5        30.24F                  
CONCORD NH     LGT RAIN  42  39  89 E5        30.19S FOG              
MANCHESTER NH  LGT RAIN  44  40  85 E9        30.17S FOG              
NASHUA NH      LGT RAIN  42  42 100 E10       30.17F FOG              
PORTSMOUTH NH  LGT RAIN  42  38  85 E8        30.20R FOG              
JAFFREY NH     LGT RAIN  43  42  97 VRB3      30.12F FOG              
KEENE NH       LGT RAIN  44  42  93 CALM      30.13F                  
BURLINGTON VT  LGT RAIN  46  42  86 S8        30.01F                  
MT. WASHINGTON SNOW      25  25 100 SE35        N/A  VSB 0   WCI   7  
$$

NYZ052-076-291600-
EASTERN NEW YORK
  
CITY           SKY/WX    TMP DP  RH WIND       PRES   REMARKS
ALBANY         LGT RAIN  47  42  83 S6G17     30.03F FOG              
NEW YORK CITY  DRIZZLE   46  44  93 NE20      30.03R FOG              
$$
 
ANZALL-291600-
MARINE OBSERVATIONS
  
STATION/POSITION TIME  TEMP    WIND        PRES    VSBY  WAVE
                       AIR SEA DIR/SP/G                  HT/PER
                 (UTC) (F)     (DEG/KT/KT) (MB)    (MI)  (FT/S)
BOSTON BUOY      1450   43 43   90/  8/ 10 1021.3F         3/ 4
BUZZARDS BAY     1400           90/ 26/ 29 1019.5F
NANTUCKET SOUND  1440                        N/A           3/ 5
MASS BAY-STELLWA 1404   43 42  140/ 10/ 12 1020.5F  1 7/8  2/ 4
ISLE OF SHOALS   1400   43      90/  8/  9 1022.5F
S OF BLOCK IS    1430      44                N/A          10/ 8
$$

......................KEY.........................
  SKY/WX - SKY CONDITION/PRESENT WEATHER
  TMP    - TEMPERATURE IN FAHRENHEIT
  DWPT   - DEWPOINT IN FAHRENHEIT
  RH     - RELATIVE HUMIDITY IN PERCENT
  WIND   - DIRECTION AND SPEED IN MPH
  PRES   - MEAN SEA LEVEL PRESSURE IN INCHES OF HG
  WCI    - WIND CHILL INDEX
  VSB    - VISIBILITY IN MILES
  HX     - HEAT INDEX
  TC     - TEMPERATURE IN CELSIUS
  VRB    - VARIABLE WIND DIRECTION
  N/A    - NOT AVAILABLE
  
      

Other recent Regional Weather Roundups

Mon Mar 30, 8:04am

Mon Mar 30, 7:04am

Mon Mar 30, 6:04am

Mon Mar 30, 5:04am

Mon Mar 30, 4:04am

Mon Mar 30, 3:05am

Mon Mar 30, 2:04am

Mon Mar 30, 1:04am

Mon Mar 30, 12:04am

Sun Mar 29, 11:04pm

Sun Mar 29, 10:05pm

Sun Mar 29, 9:04pm

Sun Mar 29, 8:04pm

Sun Mar 29, 7:04pm

Sun Mar 29, 6:04pm

Sun Mar 29, 5:05pm

Sun Mar 29, 4:04pm

Sun Mar 29, 3:04pm

Sun Mar 29, 2:04pm

Sun Mar 29, 1:05pm

Sun Mar 29, 12:04pm

Sun Mar 29, 10:04am

Sun Mar 29, 9:04am

Sun Mar 29, 8:04am

Sun Mar 29, 7:04am

Sun Mar 29, 6:04am

Sun Mar 29, 5:04am

Sun Mar 29, 4:04am

Sun Mar 29, 3:04am

Sun Mar 29, 2:04am

Sun Mar 29, 1:04am

Sun Mar 29, 12:04am

Sat Mar 28, 11:05pm

Sat Mar 28, 10:04pm

Sat Mar 28, 9:04pm

Sat Mar 28, 8:04pm

Sat Mar 28, 7:04pm

Sat Mar 28, 6:04pm

Sat Mar 28, 5:05pm

Sat Mar 28, 4:04pm

Sat Mar 28, 3:04pm

Sat Mar 28, 2:04pm

Sat Mar 28, 1:05pm

Sat Mar 28, 12:04pm

Sat Mar 28, 11:04am

Sat Mar 28, 10:04am

Sat Mar 28, 9:04am

Sat Mar 28, 8:04am

Sat Mar 28, 7:04am

Sat Mar 28, 6:04am

Sat Mar 28, 5:04am

Sat Mar 28, 4:04am

Sat Mar 28, 3:04am

Sat Mar 28, 2:04am

Sat Mar 28, 1:04am

Sat Mar 28, 12:04am

Fri Mar 27, 11:04pm

Fri Mar 27, 10:04pm

Fri Mar 27, 9:04pm

Fri Mar 27, 8:04pm

Fri Mar 27, 7:05pm

Fri Mar 27, 6:04pm

Fri Mar 27, 5:05pm

Fri Mar 27, 4:05pm

Fri Mar 27, 3:04pm

Fri Mar 27, 2:05pm

Fri Mar 27, 1:04pm

Fri Mar 27, 12:04pm

Fri Mar 27, 11:04am

Fri Mar 27, 10:04am

Fri Mar 27, 9:04am

Meta data:

ID: 05fb05af-b1d9-46c9-905d-3760fca2d797
Link: https://api.weather.gov/products/05fb05af-b1d9-46c9-905d-3760fca2d797